Showing default

ISAT, 43879

Orbit data source: Space-Track

ISAT, 43879 is a payload satellite owned by iSky (DE) in SSO that was launched on Thu, 27 Dec 2018 UTC via a SOYUZ-2-1A launch vehicle from the Vostochny Cosmodrome (VOSTO). Payload-class satellites include a variety of spacecraft equipped with specific instruments for various scientific and technological missions. These include communications satellites like Starlink; space stations such as the ISS; scientific satellites like the Hubble; Earth observation satellites from companies like Planet Labs, Umbra, and HawkEye 360; GPS; miniature CubeSats for education and research; and military/defense satellites.

Loading next visibility...
Identifier
43879, 2018-111D
Orbit
SSO
Last TLE update
14 hours ago
Origin
Manufacturer
German Orb Sys
Mission
Operational Commercial Communications
Bus & Motor
CUBESAT 3U, Unknown motor
Mass
3 kg wet, 3 kg dry
Launch date (UTC)
2018-12-27 (6 years ago)
Launch vehicle
SOYUZ-2-1A
Launch site
Vostochny Cosmodrome (VOSTO)
Object type
Payload
Rocket body
Debris
Shape & HBR
Box + 1 Ant, 1 m
Radar Cross Section
0.061 m², Small (<0.1 m²)

Expand to show TLE details & history

TLE from 14 hours ago
0 ISAT
1 43879U 18111D   25128.69513145  .00021745  00000-0  78048-3 0  9994
2 43879  97.5980  42.4113 0007102 324.0589  36.0172 15.28681758348822
Epoch: 2025-05-08T16:40Z
Definitive object data (Epoch: 2025-05-08T16:40:59.357Z)
Latitude
0.00001°
Longitude
-74.59796°
Altitude
478.909 km
Speed
7.628 km/s
True Right ascension
02h 49m 38s
True Declination
0° 00' 00"
Sunlit
Object was in daylight at TLE epoch
Visualization TLE readout
Latitude
-82.39513°
Longitude
9.49321°
Altitude
504.99 km
Speed
7.612 km/s
Apparent Right ascension
03h 16m 44s
Apparent Declination
-65° 13' 33"
Sunlit
Object is in daylight
Visualization observer readout
Local Sidereal Time
14:34:48
Azimuth
190.01° SSW
Elevation
-63.98°
Doppler factor
1
Orbital elements
Apogee altitude
481.583 km
Perigee altitude
471.846 km
Semi-major axis
6,854.852 km
Eccentricity
0.0007102
Inclination
97.598°
RAAN
42.4113°
Arg. of periapsis
324.0589°
True anomaly
36.06509°
Mean anomaly
36.0172°
Eccentric anomaly
36.04114°
Mean motion
3.82425 °/min
BSTAR
0.00078048
Orbital period
94.14 mins
Loading maneuver chart data...
Loading SW <> Apogee altitude chart data...
Loading historical data...
Loading historical data...
Loading historical data...
Loading historical data...
Loading historical data...
Loading historical data...
Loading historical data...

ISAT Visibility forecast

Observer location: undefined°, undefined°

Span
Click to sort rows by Start time (UTC) header in descending order
Start Az.
Max El. time (UTC)
Max El. Az.
Max El.
End time (UTC)
End Az.
6 mins2025-05-09 07:22:58.423Z358.034° N2025-05-09 07:25:58.423Z264.272° W37.107°2025-05-09 07:28:58.423Z209.66° SW
5 mins2025-05-09 17:57:58.423Z139.541° SSE2025-05-09 17:59:58.423Z66.555° ENE37.112°2025-05-09 18:02:58.423Z0.263° NNE
|